Location: A�t Lahcen
(32.8243°N, 5.4246°W)
Time: 02:09:59
(UTC+00:00)

SKYMED 2 - Pass Details

Date: 27 January 2021
Orbit: 621 x 623 km, 97.9° (Epoch: 26 February)

Event Time Altitude Azimuth Distance (km) Brightness Sun altitude
Rises 05:49:50 0° 172° (S) 2,888 7.2 -19.0°
Reaches altitude 10° 05:52:01 10° 175° (S) 1,985 6.3 -18.5°
Maximum altitude 05:56:19 69° 258° (WSW) 667 3.5 -17.6°
Drops below altitude 10° 06:00:40 10° 343° (NNW) 1,998 5.9 -16.7°
Enters shadow 06:01:05 - 343° (NNW) 2,173 6.1 -16.7°
